Regional Weather Roundup
Issued by NWS State College, PA

Home | Current Version | Previous Version | Text Only | Print | Product List | Glossary On
Versions: 1 2 3 4 5 6 7 8 9 10 11 12 13 14 15 16 17 18 19 20 21 22 23 24 25 26 27 28 29 30 31 32 33 34 35 36 37 38 39 40 41 42 43 44 45 46 47 48 49 50
000
ASUS41 KCTP 270103
RWRCTP

REGIONAL WEATHER ROUNDUP
NATIONAL WEATHER SERVICE STATE COLLEGE PA
800 PM EST SUN FEB 26 2017

Note: "fair" indicates few or no clouds below 12,000 feet with no
significant weather and/or obstructions to visibility.

* = STATION THAT DOES NOT REPORT PRECIPITATION /E.G. RAIN...SNOW...ETC/
    THUNDER OR FOG.

PAZ002>004-007>009-013>016-020>023-029>032-270200-
WESTERN PENNSYLVANIA

CITY           SKY/WX    TMP DP  RH WIND       PRES   REMARKS
ERIE           PTCLDY    36  18  48 S17G23    30.08S
MEADVILLE      PTCLDY    32  17  54 S7        30.10R
FRANKLIN*      CLEAR     30  14  51 S10       30.12F
NEW CASTLE     FAIR      34  16  47 S3        30.16R
BEAVER COUNTY  NOT AVBL
BUTLER*        CLEAR     34  16  47 S6        30.17R
PITTSBURGH INT PTCLDY    35  15  44 S5        30.17R
PITTSBURGH     CLEAR     35  12  38 S7        30.17R
INDIANA*       CLEAR     30  18  59 SW3       30.20R
LATROBE        CLEAR     32  14  47 SW6       30.19R
WASHINGTON CO* CLEAR     34  12  40 SW5       30.20R
$$

PAZ004>006-010>012-017>019-024>028-033>037-041-042-045-046-049>053-270200-
CENTRAL PENNSYLVANIA

CITY           SKY/WX    TMP DP  RH WIND       PRES   REMARKS
BRADFORD       CLEAR     27  14  58 S6        30.08R
DUBOIS         CLEAR     28  13  53 SW7       30.12R
CLEARFIELD       N/A    N/A N/A N/A MISG      30.15R
JOHNSTOWN      CLEAR     30  13  49 SW8       30.13R
ALTOONA        CLEAR     31  16  54 S7        30.17R
STATE COLLEGE  CLEAR     28  16  59 SW7       30.17R
WILLIAMSPORT   CLEAR     34  14  43 CALM      30.19R
SELINSGROVE    CLEAR     29  18  63 CALM      30.21R
FT INDIANTOWN  CLEAR     32  15  48 CALM      30.22R
CAPITAL CITY   CLEAR     34  17  50 W5        30.23R
HARRISBURG     CLEAR     35  19  52 W3        30.23R
YORK           CLEAR     27  22  81 CALM      30.22R
$$

PAZ038>040-043-044-047-048-054-055-060>062-067>071-270200-
EASTERN PENNSYLVANIA

CITY           SKY/WX    TMP DP  RH WIND       PRES   REMARKS
SCRANTON       CLEAR     32  16  51 SW7       30.15R
MOUNT POCONO   CLEAR     26  15  63 W9        30.10R
ALLENTOWN      CLEAR     32  15  49 W5        30.21R
QUAKERTOWN*    CLEAR     30  19  64 CALM      30.21R
READING        CLEAR     33  17  51 W3        30.22R
LANCASTER      CLEAR     34  20  56 S3        30.23R
COATESVILLE    CLEAR     32  18  55 W3        30.23R
POTTSTOWN      CLEAR     33  16  49 W5        30.23R
BLUE BELL      CLEAR     34  18  51 CALM      30.22R
DOYLESTOWN     CLEAR     34  19  54 W3        30.21R
WILLOW GROVE   NOT AVBL
NORTH PHILA    CLEAR     37  17  44 W9        30.25R
PHILADELPHIA   PTCLDY    40  16  37 NW10      30.25R
$$




USA.gov is the U.S. government's official web portal to all federal, state and local government web resources and services.